Time,TemperatureF,DewpointF,PressureIn,WindDirection,WindDirectionDegrees,WindSpeedMPH,WindSpeedGustMPH,Humidity,HourlyPrecipIn,Conditions,Clouds,dailyrainin,SoftwareType,DateUTC
2013-11-11 00:01:00,42.3,40.4,29.99,SW,225,1.6,3.1,93,0.00,,,0.00,pywws,2013-11-10 23:01:00,
2013-11-11 00:11:00,42.1,40.2,30.00,SW,225,2.2,3.8,93,0.00,,,0.00,pywws,2013-11-10 23:11:00,
2013-11-11 00:21:00,42.1,40.2,30.01,SW,225,3.1,5.4,93,0.00,,,0.00,pywws,2013-11-10 23:21:00,
2013-11-11 00:31:00,41.9,40.0,30.01,SW,225,3.8,5.4,93,0.01,,,0.01,pywws,2013-11-10 23:31:00,
2013-11-11 00:41:00,41.7,39.8,30.02,SW,225,1.6,3.8,93,0.01,,,0.01,pywws,2013-11-10 23:41:00,
2013-11-11 00:51:00,41.7,39.8,30.02,SW,225,0.7,3.1,93,0.01,,,0.01,pywws,2013-11-10 23:51:00,
2013-11-11 01:01:00,41.7,39.8,30.03,SW,225,0.0,0.7,93,0.01,,,0.01,pywws,2013-11-11 00:01:00,
2013-11-11 01:11:00,41.7,39.8,30.03,SW,225,0.0,0.0,93,0.01,,,0.01,pywws,2013-11-11 00:11:00,
2013-11-11 01:21:00,41.7,40.1,30.05,SW,225,0.0,0.0,94,0.01,,,0.01,pywws,2013-11-11 00:21:00,
2013-11-11 01:31:00,41.7,40.1,30.05,SW,225,0.0,0.7,94,0.00,,,0.01,pywws,2013-11-11 00:31:00,
2013-11-11 01:41:00,41.7,40.1,30.06,SW,225,0.0,0.7,94,0.00,,,0.01,pywws,2013-11-11 00:41:00,
2013-11-11 01:51:00,41.7,40.1,30.07,SW,225,0.0,0.0,94,0.00,,,0.01,pywws,2013-11-11 00:51:00,
2013-11-11 02:01:00,41.7,40.1,30.08,SW,225,0.0,0.0,94,0.00,,,0.01,pywws,2013-11-11 01:01:00,
2013-11-11 02:11:00,41.7,40.1,30.08,SW,225,0.0,0.0,94,0.00,,,0.01,pywws,2013-11-11 01:11:00,
2013-11-11 02:21:00,41.7,40.1,30.08,SW,225,0.0,0.0,94,0.00,,,0.01,pywws,2013-11-11 01:21:00,
2013-11-11 02:31:00,41.7,40.1,30.09,SW,225,0.0,1.6,94,0.00,,,0.01,pywws,2013-11-11 01:31:00,
2013-11-11 02:41:00,41.7,40.1,30.09,SW,225,0.7,2.2,94,0.00,,,0.01,pywws,2013-11-11 01:41:00,
2013-11-11 02:51:00,41.5,39.9,30.10,SW,225,0.0,1.6,94,0.00,,,0.01,pywws,2013-11-11 01:51:00,
2013-11-11 03:01:00,41.5,39.9,30.11,SW,225,0.0,2.2,94,0.00,,,0.01,pywws,2013-11-11 02:01:00,
2013-11-11 03:11:00,41.4,39.8,30.11,SW,225,0.7,2.2,94,0.00,,,0.01,pywws,2013-11-11 02:11:00,
2013-11-11 03:21:00,41.4,39.8,30.11,SW,225,0.0,3.1,94,0.00,,,0.01,pywws,2013-11-11 02:21:00,
2013-11-11 03:31:00,41.2,39.6,30.12,SW,225,0.7,2.2,94,0.00,,,0.01,pywws,2013-11-11 02:31:00,
2013-11-11 03:41:00,41.2,39.6,30.13,SW,225,0.7,3.1,94,0.00,,,0.01,pywws,2013-11-11 02:41:00,
2013-11-11 03:51:00,41.2,39.6,30.13,SW,225,1.6,3.8,94,0.00,,,0.01,pywws,2013-11-11 02:51:00,
2013-11-11 04:01:00,41.0,39.4,30.14,SW,225,0.7,2.2,94,0.00,,,0.01,pywws,2013-11-11 03:01:00,
2013-11-11 04:11:00,40.8,39.2,30.14,SW,225,1.6,3.1,94,0.00,,,0.01,pywws,2013-11-11 03:11:00,
2013-11-11 04:21:00,40.8,39.2,30.14,SW,225,1.6,3.1,94,0.00,,,0.01,pywws,2013-11-11 03:21:00,
2013-11-11 04:31:00,40.6,39.1,30.14,SW,225,2.2,3.8,94,0.00,,,0.01,pywws,2013-11-11 03:31:00,
2013-11-11 04:41:00,40.6,39.1,30.15,SW,225,0.0,1.6,94,0.00,,,0.01,pywws,2013-11-11 03:41:00,
2013-11-11 04:51:00,40.6,39.1,30.16,SW,225,0.0,0.7,94,0.00,,,0.01,pywws,2013-11-11 03:51:00,
2013-11-11 05:01:00,40.6,39.3,30.16,SW,225,0.7,3.1,95,0.00,,,0.01,pywws,2013-11-11 04:01:00,
2013-11-11 05:11:00,40.5,39.1,30.17,SW,225,1.6,4.5,95,0.00,,,0.01,pywws,2013-11-11 04:11:00,
2013-11-11 05:21:00,40.3,39.0,30.18,SW,225,1.6,3.8,95,0.00,,,0.01,pywws,2013-11-11 04:21:00,
2013-11-11 05:31:00,40.3,39.0,30.19,SW,225,0.0,2.2,95,0.00,,,0.01,pywws,2013-11-11 04:31:00,
2013-11-11 05:41:00,40.1,38.8,30.19,SW,225,0.0,0.0,95,0.00,,,0.01,pywws,2013-11-11 04:41:00,
2013-11-11 05:51:00,39.9,38.6,30.20,SW,225,0.0,3.1,95,0.00,,,0.01,pywws,2013-11-11 04:51:00,
2013-11-11 06:01:00,39.6,38.2,30.21,SW,225,0.0,0.7,95,0.00,,,0.01,pywws,2013-11-11 05:01:00,
2013-11-11 06:11:00,39.0,37.7,30.21,SW,225,0.7,2.2,95,0.00,,,0.01,pywws,2013-11-11 05:11:00,
2013-11-11 06:21:00,38.8,37.5,30.21,SW,225,0.7,1.6,95,0.00,,,0.01,pywws,2013-11-11 05:21:00,
2013-11-11 06:31:00,38.5,37.2,30.22,SW,225,0.0,0.7,95,0.00,,,0.01,pywws,2013-11-11 05:31:00,
2013-11-11 06:41:00,38.3,37.0,30.22,SW,225,0.0,0.7,95,0.00,,,0.01,pywws,2013-11-11 05:41:00,
2013-11-11 06:51:00,38.3,37.0,30.23,SW,225,0.0,0.0,95,0.00,,,0.01,pywws,2013-11-11 05:51:00,
2013-11-11 07:01:00,38.3,37.3,30.24,SW,225,0.7,1.6,96,0.00,,,0.01,pywws,2013-11-11 06:01:00,
2013-11-11 07:11:00,38.1,37.1,30.24,SW,225,0.0,1.6,96,0.00,,,0.01,pywws,2013-11-11 06:11:00,
2013-11-11 07:21:00,38.3,37.3,30.25,SW,225,1.6,5.4,96,0.00,,,0.01,pywws,2013-11-11 06:21:00,
2013-11-11 07:31:00,38.3,37.3,30.25,SW,225,0.7,2.2,96,0.00,,,0.01,pywws,2013-11-11 06:31:00,
2013-11-11 07:41:00,38.5,37.4,30.25,SW,225,2.2,6.0,96,0.00,,,0.01,pywws,2013-11-11 06:41:00,
2013-11-11 07:51:00,38.8,37.8,30.26,SW,225,0.0,1.6,96,0.00,,,0.01,pywws,2013-11-11 06:51:00,
2013-11-11 08:01:00,39.2,38.2,30.26,SW,225,0.7,2.2,96,0.00,,,0.01,pywws,2013-11-11 07:01:00,
2013-11-11 08:11:00,40.1,39.1,30.27,SW,225,0.0,2.2,96,0.00,,,0.01,pywws,2013-11-11 07:11:00,
2013-11-11 08:21:00,41.2,40.1,30.28,SW,225,1.6,3.8,96,0.00,,,0.01,pywws,2013-11-11 07:21:00,
2013-11-11 08:31:00,41.9,40.6,30.28,SW,225,1.6,6.9,95,0.00,,,0.01,pywws,2013-11-11 07:31:00,
2013-11-11 08:41:00,42.3,40.9,30.28,SW,225,1.6,3.8,95,0.00,,,0.01,pywws,2013-11-11 07:41:00,
2013-11-11 08:51:00,43.5,41.9,30.28,SW,225,1.6,3.8,94,0.00,,,0.01,pywws,2013-11-11 07:51:00,
2013-11-11 09:01:00,44.6,42.7,30.28,SW,225,3.1,7.6,93,0.00,,,0.01,pywws,2013-11-11 08:01:00,
2013-11-11 09:11:00,45.5,43.3,30.29,SW,225,3.8,5.4,92,0.00,,,0.01,pywws,2013-11-11 08:11:00,
2013-11-11 09:21:00,46.6,44.1,30.30,SW,225,1.6,4.5,91,0.00,,,0.01,pywws,2013-11-11 08:21:00,
2013-11-11 09:31:00,47.3,44.5,30.30,SW,225,3.8,7.6,90,0.00,,,0.01,pywws,2013-11-11 08:31:00,
2013-11-11 09:41:00,47.8,44.5,30.31,SW,225,4.5,7.6,88,0.00,,,0.01,pywws,2013-11-11 08:41:00,
2013-11-11 09:51:00,47.7,43.7,30.31,SW,225,5.4,9.2,86,0.00,,,0.01,pywws,2013-11-11 08:51:00,
2013-11-11 10:01:00,47.3,42.7,30.32,SW,225,4.5,9.2,84,0.00,,,0.01,pywws,2013-11-11 09:01:00,
2013-11-11 10:11:00,46.8,41.9,30.32,SW,225,3.8,7.6,83,0.00,,,0.01,pywws,2013-11-11 09:11:00,
2013-11-11 10:21:00,47.1,42.2,30.33,SW,225,3.8,6.0,83,0.00,,,0.01,pywws,2013-11-11 09:21:00,
2013-11-11 10:31:00,46.9,41.7,30.32,SW,225,4.5,9.2,82,0.00,,,0.01,pywws,2013-11-11 09:31:00,
2013-11-11 10:41:00,47.5,42.3,30.32,SW,225,3.8,9.2,82,0.00,,,0.01,pywws,2013-11-11 09:41:00,
2013-11-11 10:51:00,46.9,41.1,30.33,SW,225,5.4,8.3,80,0.00,,,0.01,pywws,2013-11-11 09:51:00,
2013-11-11 11:01:00,46.8,40.9,30.33,SW,225,6.0,13.0,80,0.00,,,0.01,pywws,2013-11-11 10:01:00,
2013-11-11 11:11:00,47.1,41.3,30.33,SW,225,6.0,11.4,80,0.00,,,0.01,pywws,2013-11-11 10:11:00,
2013-11-11 11:21:00,47.3,41.4,30.34,SW,225,4.5,7.6,80,0.00,,,0.01,pywws,2013-11-11 10:21:00,
2013-11-11 11:31:00,47.8,42.0,30.34,SW,225,3.1,6.9,80,0.00,,,0.01,pywws,2013-11-11 10:31:00,
2013-11-11 11:41:00,48.7,42.2,30.34,SW,225,5.4,10.7,78,0.00,,,0.01,pywws,2013-11-11 10:41:00,
2013-11-11 11:51:00,49.3,43.0,30.34,SW,225,6.0,12.1,79,0.00,,,0.01,pywws,2013-11-11 10:51:00,
2013-11-11 12:01:00,49.6,43.1,30.35,SW,225,5.4,9.8,78,0.00,,,0.01,pywws,2013-11-11 11:01:00,
2013-11-11 12:11:00,49.3,41.7,30.35,SW,225,5.4,9.8,75,0.00,,,0.01,pywws,2013-11-11 11:11:00,
2013-11-11 12:21:00,47.7,40.8,30.35,SW,225,2.2,3.8,77,0.00,,,0.01,pywws,2013-11-11 11:21:00,
2013-11-11 12:31:00,47.8,41.3,30.35,SW,225,3.1,5.4,78,0.00,,,0.01,pywws,2013-11-11 11:31:00,
2013-11-11 12:41:00,47.7,40.8,30.36,SW,225,4.5,7.6,77,0.00,,,0.01,pywws,2013-11-11 11:41:00,
2013-11-11 12:51:00,47.7,41.1,30.36,SW,225,2.2,4.5,78,0.00,,,0.01,pywws,2013-11-11 11:51:00,
2013-11-11 13:01:00,47.7,40.8,30.36,SW,225,0.7,2.2,77,0.00,,,0.01,pywws,2013-11-11 12:01:00,
2013-11-11 13:11:00,47.3,40.5,30.37,SW,225,3.1,3.8,77,0.00,,,0.01,pywws,2013-11-11 12:11:00,
2013-11-11 13:21:00,47.5,41.0,30.37,SW,225,3.1,5.4,78,0.01,,,0.02,pywws,2013-11-11 12:21:00,
2013-11-11 13:31:00,47.8,41.0,30.37,SW,225,1.6,3.1,77,0.01,,,0.02,pywws,2013-11-11 12:31:00,
2013-11-11 13:41:00,47.7,40.5,30.37,SW,225,2.2,3.8,76,0.01,,,0.02,pywws,2013-11-11 12:41:00,
2013-11-11 13:51:00,47.7,40.5,30.37,SW,225,1.6,4.5,76,0.01,,,0.02,pywws,2013-11-11 12:51:00,
2013-11-11 14:01:00,48.0,40.8,30.37,SW,225,0.0,2.2,76,0.01,,,0.02,pywws,2013-11-11 13:01:00,
2013-11-11 14:11:00,48.2,41.0,30.38,SW,225,0.7,3.1,76,0.01,,,0.02,pywws,2013-11-11 13:11:00,
2013-11-11 14:21:00,47.8,40.6,30.38,SW,225,2.2,6.0,76,0.00,,,0.02,pywws,2013-11-11 13:21:00,
2013-11-11 14:31:00,47.1,39.9,30.39,SW,225,0.7,1.6,76,0.00,,,0.02,pywws,2013-11-11 13:31:00,
2013-11-11 14:41:00,46.8,39.6,30.38,SW,225,2.2,4.5,76,0.00,,,0.02,pywws,2013-11-11 13:41:00,
2013-11-11 14:51:00,46.6,39.8,30.39,SW,225,0.7,1.6,77,0.00,,,0.02,pywws,2013-11-11 13:51:00,
2013-11-11 15:01:00,46.6,39.8,30.39,SW,225,2.2,3.8,77,0.00,,,0.02,pywws,2013-11-11 14:01:00,
2013-11-11 15:11:00,46.0,39.2,30.40,SW,225,0.7,3.1,77,0.00,,,0.02,pywws,2013-11-11 14:11:00,
2013-11-11 15:21:00,45.7,39.2,30.40,SW,225,0.0,0.7,78,0.00,,,0.02,pywws,2013-11-11 14:21:00,
2013-11-11 15:31:00,45.3,38.9,30.40,SW,225,0.7,2.2,78,0.00,,,0.02,pywws,2013-11-11 14:31:00,
2013-11-11 15:41:00,44.8,38.7,30.41,SW,225,1.6,3.8,79,0.00,,,0.02,pywws,2013-11-11 14:41:00,
2013-11-11 15:51:00,44.4,38.3,30.42,SW,225,0.7,2.2,79,0.00,,,0.02,pywws,2013-11-11 14:51:00,
2013-11-11 16:01:00,44.2,38.5,30.41,SW,225,2.2,4.5,80,0.00,,,0.02,pywws,2013-11-11 15:01:00,
2013-11-11 16:11:00,44.2,38.5,30.42,SW,225,0.7,2.2,80,0.00,,,0.02,pywws,2013-11-11 15:11:00,
2013-11-11 16:21:00,44.1,38.6,30.42,SW,225,1.6,3.8,81,0.00,,,0.02,pywws,2013-11-11 15:21:00,
2013-11-11 16:31:00,44.1,38.6,30.42,SW,225,1.6,3.8,81,0.00,,,0.02,pywws,2013-11-11 15:31:00,
2013-11-11 16:41:00,44.1,38.6,30.42,SW,225,0.0,2.2,81,0.00,,,0.02,pywws,2013-11-11 15:41:00,
2013-11-11 16:51:00,43.9,38.4,30.42,SW,225,1.6,3.1,81,0.00,,,0.02,pywws,2013-11-11 15:51:00,
2013-11-11 17:01:00,43.7,38.3,30.42,SW,225,0.0,2.2,81,0.00,,,0.02,pywws,2013-11-11 16:01:00,
2013-11-11 17:11:00,43.5,38.4,30.43,SW,225,0.0,0.0,82,0.00,,,0.02,pywws,2013-11-11 16:11:00,
2013-11-11 17:21:00,43.5,38.4,30.43,SW,225,0.0,0.7,82,0.00,,,0.02,pywws,2013-11-11 16:21:00,
2013-11-11 17:31:00,43.5,38.4,30.42,SW,225,0.0,1.6,82,0.00,,,0.02,pywws,2013-11-11 16:31:00,
2013-11-11 17:41:00,43.5,38.4,30.44,SW,225,0.7,2.2,82,0.00,,,0.02,pywws,2013-11-11 16:41:00,
2013-11-11 17:51:00,43.3,38.2,30.44,SW,225,0.0,0.0,82,0.00,,,0.02,pywws,2013-11-11 16:51:00,
2013-11-11 18:01:00,43.3,38.5,30.45,SW,225,0.0,0.0,83,0.00,,,0.02,pywws,2013-11-11 17:01:00,
2013-11-11 18:11:00,43.5,38.7,30.45,SW,225,0.0,0.0,83,0.00,,,0.02,pywws,2013-11-11 17:11:00,
2013-11-11 18:21:00,43.3,38.8,30.45,SW,225,0.0,0.0,84,0.00,,,0.02,pywws,2013-11-11 17:21:00,
2013-11-11 18:31:00,43.3,38.8,30.45,SW,225,0.0,0.0,84,0.00,,,0.02,pywws,2013-11-11 17:31:00,
2013-11-11 18:41:00,43.2,39.0,30.45,SW,225,0.0,0.0,85,0.00,,,0.02,pywws,2013-11-11 17:41:00,
2013-11-11 18:51:00,43.0,38.8,30.46,SW,225,0.0,0.0,85,0.00,,,0.02,pywws,2013-11-11 17:51:00,
2013-11-11 19:01:00,43.0,38.8,30.46,SW,225,0.0,0.0,85,0.00,,,0.02,pywws,2013-11-11 18:01:00,
2013-11-11 19:11:00,42.8,38.6,30.46,SW,225,0.0,0.0,85,0.00,,,0.02,pywws,2013-11-11 18:11:00,
2013-11-11 19:21:00,42.6,38.4,30.47,SW,225,0.0,1.6,85,0.00,,,0.02,pywws,2013-11-11 18:21:00,
2013-11-11 19:31:00,42.6,38.4,30.47,SW,225,0.0,0.0,85,0.00,,,0.02,pywws,2013-11-11 18:31:00,
2013-11-11 19:41:00,42.4,38.3,30.48,SW,225,0.0,0.0,85,0.00,,,0.02,pywws,2013-11-11 18:41:00,
2013-11-11 19:51:00,42.3,37.8,30.48,SW,225,0.0,1.6,84,0.00,,,0.02,pywws,2013-11-11 18:51:00,
2013-11-11 20:01:00,42.3,37.8,30.48,SW,225,0.0,0.0,84,0.00,,,0.02,pywws,2013-11-11 19:01:00,
2013-11-11 20:11:00,41.9,37.4,30.48,SW,225,0.0,0.0,84,0.00,,,0.02,pywws,2013-11-11 19:11:00,
2013-11-11 20:21:00,41.9,37.1,30.49,SW,225,0.0,0.0,83,0.00,,,0.02,pywws,2013-11-11 19:21:00,
2013-11-11 20:31:00,41.4,36.6,30.49,SW,225,0.0,0.0,83,0.00,,,0.02,pywws,2013-11-11 19:31:00,
2013-11-11 20:41:00,41.4,36.9,30.49,SW,225,0.0,0.0,84,0.00,,,0.02,pywws,2013-11-11 19:41:00,
2013-11-11 20:51:00,41.2,37.0,30.49,SW,225,0.0,0.0,85,0.00,,,0.02,pywws,2013-11-11 19:51:00,
2013-11-11 21:01:00,41.0,36.8,30.49,SW,225,0.0,0.0,85,0.00,,,0.02,pywws,2013-11-11 20:01:00,
2013-11-11 21:11:00,40.8,36.7,30.49,SW,225,0.0,0.0,85,0.00,,,0.02,pywws,2013-11-11 20:11:00,
2013-11-11 21:21:00,40.6,36.8,30.49,SW,225,0.0,0.0,86,0.00,,,0.02,pywws,2013-11-11 20:21:00,
2013-11-11 21:31:00,40.6,36.8,30.49,SW,225,0.0,0.0,86,0.00,,,0.02,pywws,2013-11-11 20:31:00,
2013-11-11 21:41:00,40.6,36.8,30.49,SW,225,0.0,1.6,86,0.00,,,0.02,pywws,2013-11-11 20:41:00,
2013-11-11 21:51:00,40.6,36.8,30.49,SW,225,0.7,2.2,86,0.00,,,0.02,pywws,2013-11-11 20:51:00,
2013-11-11 22:01:00,40.8,37.0,30.49,SW,225,0.0,0.0,86,0.00,,,0.02,pywws,2013-11-11 21:01:00,
2013-11-11 22:11:00,40.8,37.0,30.49,SW,225,0.0,0.7,86,0.00,,,0.02,pywws,2013-11-11 21:11:00,
2013-11-11 22:21:00,40.8,37.0,30.49,SW,225,0.0,0.0,86,0.00,,,0.02,pywws,2013-11-11 21:21:00,
2013-11-11 22:31:00,40.6,36.8,30.49,SW,225,0.0,0.0,86,0.00,,,0.02,pywws,2013-11-11 21:31:00,
2013-11-11 22:41:00,40.6,37.1,30.49,SW,225,0.0,0.0,87,0.00,,,0.02,pywws,2013-11-11 21:41:00,
2013-11-11 22:51:00,40.5,36.9,30.49,SW,225,0.0,0.0,87,0.00,,,0.02,pywws,2013-11-11 21:51:00,
2013-11-11 23:01:00,40.3,36.7,30.49,SW,225,0.0,0.7,87,0.00,,,0.02,pywws,2013-11-11 22:01:00,
2013-11-11 23:11:00,40.3,37.0,30.49,SW,225,0.0,0.0,88,0.00,,,0.02,pywws,2013-11-11 22:11:00,
2013-11-11 23:21:00,40.1,36.8,30.49,SW,225,0.0,0.0,88,0.00,,,0.02,pywws,2013-11-11 22:21:00,
2013-11-11 23:31:00,40.1,36.8,30.49,SW,225,0.0,0.0,88,0.00,,,0.02,pywws,2013-11-11 22:31:00,
2013-11-11 23:41:00,39.9,36.7,30.49,SW,225,0.0,0.0,88,0.00,,,0.02,pywws,2013-11-11 22:41:00,
2013-11-11 23:51:00,39.9,36.7,30.50,SW,225,0.0,0.0,88,0.00,,,0.02,pywws,2013-11-11 22:51:00,